TimePDT,TemperatureF,Dew PointF,Humidity,Sea Level PressureIn,VisibilityMPH,Wind Direction,Wind SpeedMPH,Gust SpeedMPH,PrecipitationIn,Events,Conditions,WindDirDegrees,DateUTC
12:53 AM,55.9,46.9,72,29.92,10.0,West,4.6,-,N/A,,Clear,280,2012-10-10 07:53:00
1:53 AM,53.1,46.9,80,29.93,10.0,NW,4.6,-,N/A,,Clear,310,2012-10-10 08:53:00
2:53 AM,54.0,46.9,77,29.92,10.0,North,3.5,-,N/A,,Clear,360,2012-10-10 09:53:00
3:53 AM,53.1,46.9,80,29.91,10.0,Calm,Calm,-,N/A,,Clear,0,2012-10-10 10:53:00
4:53 AM,52.0,46.9,83,29.91,10.0,Calm,Calm,-,N/A,,Clear,0,2012-10-10 11:53:00
5:53 AM,52.0,48.0,86,29.92,10.0,Calm,Calm,-,N/A,,Clear,0,2012-10-10 12:53:00
6:53 AM,50.0,46.9,89,29.93,10.0,Calm,Calm,-,N/A,,Clear,0,2012-10-10 13:53:00
7:53 AM,54.0,48.0,80,29.94,10.0,Calm,Calm,-,N/A,,Clear,0,2012-10-10 14:53:00
8:53 AM,57.0,46.9,69,29.94,10.0,SW,3.5,-,N/A,,Scattered Clouds,220,2012-10-10 15:53:00
9:53 AM,61.0,48.0,62,29.96,10.0,SSE,5.8,-,N/A,,Partly Cloudy,150,2012-10-10 16:53:00
10:53 AM,66.0,48.0,52,29.94,10.0,Variable,4.6,-,N/A,,Clear,0,2012-10-10 17:53:00
11:53 AM,70.0,48.0,46,29.93,10.0,SSW,8.1,-,N/A,,Clear,200,2012-10-10 18:53:00
12:53 PM,72.0,48.0,43,29.91,10.0,SW,10.4,-,N/A,,Clear,220,2012-10-10 19:53:00
1:53 PM,73.9,46.9,38,29.89,10.0,SW,5.8,-,N/A,,Clear,230,2012-10-10 20:53:00
2:53 PM,73.9,46.9,38,29.88,10.0,South,4.6,-,N/A,,Partly Cloudy,180,2012-10-10 21:53:00
3:53 PM,75.9,46.0,35,29.87,10.0,Calm,Calm,-,N/A,,Clear,0,2012-10-10 22:53:00
4:53 PM,75.0,45.0,34,29.86,10.0,SSE,6.9,-,N/A,,Clear,160,2012-10-10 23:53:00
5:53 PM,73.9,43.0,33,29.85,10.0,South,9.2,-,N/A,,Clear,190,2012-10-11 00:53:00
6:53 PM,68.0,45.0,43,29.86,10.0,South,5.8,-,N/A,,Clear,190,2012-10-11 01:53:00
7:53 PM,63.0,45.0,52,29.88,10.0,WNW,9.2,-,N/A,,Clear,290,2012-10-11 02:53:00
8:53 PM,61.0,50.0,67,29.88,10.0,West,6.9,-,N/A,,Clear,280,2012-10-11 03:53:00
9:53 PM,59.0,50.0,72,29.89,10.0,WNW,4.6,-,N/A,,Clear,300,2012-10-11 04:53:00
10:53 PM,60.1,50.0,69,29.90,10.0,North,6.9,-,N/A,,Clear,350,2012-10-11 05:53:00
11:53 PM,57.0,48.9,74,29.89,10.0,NNW,5.8,-,N/A,,Clear,340,2012-10-11 06:53:00